Location: *
(49.4547°N, 7.9131°E)
Time: 00:04:39
(UTC+00:00)

CZ-2C R/B - Pass Details

Date: 22 September 2019
Orbit: 705 x 907 km, 98.1° (Epoch: 14 October)

Event Time Altitude Azimuth Distance (km) Brightness Sun altitude
Exits shadow 19:55:54 41° 178° (S) 1,183 3.7 -23.8°
Maximum altitude 19:57:50 78° 257° (WSW) 864 3.2 -24.1°
Drops below altitude 10° 20:03:29 10° 344° (NNW) 2,529 6.3 -24.9°
Sets 20:05:57 0° 346° (NNW) 3,495 7.1 -25.2°
